Weather Roundup
Issued by NWS Chicago, IL

Home | Current Version | Previous Version | Graphics & Text | Print | Product List | Glossary On
Versions: 1 2 3 4 5 6 7 8 9 10 11 12 13 14 15 16 17 18 19 20 21 22 23 24 25 26 27 28 29 30 31 32 33 34 35 36 37 38 39 40 41 42 43 44 45 46 47 48 49 50
000
NZUS59 KLOT 040321
HRRLOT

CHICAGO AREA WEATHER ROUNDUP
NATIONAL WEATHER SERVICE CHICAGO/ROMEOVILLE IL
1000 PM CDT FRI JUL 03 2015

NOTE: "FAIR" INDICATES FEW OR NO CLOUDS BELOW 12,000 FEET WITH NO
SIGNIFICANT WEATHER AND/OR OBSTRUCTIONS TO VISIBILITY.

* THESE STATIONS ARE NOT UNDER NWS QUALITY CONTROL. THEY ALSO MAY NOT
  REPORT WEATHER SUCH AS PRECIPITATION OR FOG.

ILZ005-006-012>014-019>023-040400-
NORTHEAST ILLINOIS

CITY           SKY/WX    TMP DP  RH WIND       PRES   REMARKS
OHARE          MOCLDY    64  53  67 SE6       29.93R
MIDWAY         MOCLDY    67  55  65 SE6       29.93R
AURORA         CLEAR     67  58  72 SE7       29.94R
LANSING*       CLEAR     62  52  69 CALM      29.95R
JOLIET*        CLEAR     67  56  69 CALM      29.94R
WAUKEGAN       CLEAR     56  54  93 CALM      29.93R
DUPAGE AIRPORT CLEAR     67  53  61 SE3       29.93R
WHEELING       CLEAR     64  54  69 CALM      29.95R
KANKAKEE*      CLEAR     65  61  86 CALM      29.95R
MORRIS*        CLEAR     67  57  72 E3        29.92R
LEWIS AIRPORT* CLEAR     65  54  67 E5        29.94R
NORTHERLY IS     N/A     63  56  78 S2          N/A
$$

WIZ051-052-058>065-066-070>072-040400-
SOUTHEAST WISCONSIN

CITY           SKY/WX    TMP DP  RH WIND       PRES   REMARKS
MILWAUKEE      PTCLDY    63  53  70 S5        29.93R
KENOSHA*         N/A     60  53  77 SE3       29.94R
RACINE*        CLEAR     60  53  77 CALM      29.95R
BURLINGTON     CLEAR     57  54  92 CALM      29.94R
WAUKESHA       CLEAR     61  52  72 CALM      29.95R
WEST BEND      CLEAR     59  52  77 CALM      29.93S
$$

INZ001>003-010>013-019-020-040400-
NORTHWEST INDIANA

CITY           SKY/WX    TMP DP  RH WIND       PRES   REMARKS
GARY*          MOCLDY    61  59  94 CALM      29.94R
MICHIGAN CITY* NOT AVBL
RENSSELAER*    NOT AVBL
VALPARAISO     CLEAR     59  55  87 CALM      29.95R
$$

LMZ740>746-040400-
SOUTHERN LAKE MICHIGAN

STATION/POSITION TIME  SKY/WX   TEMP WIND        PRES    VSBY
                                AIR  DIR/SP/G
                 (UTC)          (F)  (DEG/KT/KT) (MB)    (MI)
HARRISON CRIB    0300            63  180/  6/  6   N/A
BURNHAM HARBOR   0300            63  160/  1/  3   N/A
CALUMET HARBOR   0200            65  110/  3/  4   N/A
BURNS HARBOR     0200            65   80/  6/  8 1014.2R
MICHIGAN CITY    0300            63  100/  5/  6   N/A
$$

ABBREVIATIONS USED IN REMARKS
   TC - TEMPERATURE IN CELSIUS
  WCI - WIND CHILL INDEX
   HX - HEAT INDEX
  VSB - VISIBILITY
$$


USA.gov is the U.S. government's official web portal to all federal, state and local government web resources and services.